Retour au catalogue

ARCTURUS

ActifScienceGEO
NORAD 56371·PAYLOAD·🇺🇸 United States

Lancé May 1, 2023 depuis Cape Canaveral Space Force Station

Loading…

TLE

FraisSource: Space-Track

Époque: Sep 14, 2026, 14:22 UTC

1 56371U 23060B   26257.59884778 -.00000369  00000-0  00000-0 0  9990
2 56371   2.9982  78.7752 0000929 197.1257  53.0232  1.00270455 12352

Suivez ARCTURUS en temps réel avec AllMySat

Download on the App Store